TimeEDT,TemperatureF,Dew PointF,Humidity,Sea Level PressureIn,VisibilityMPH,Wind Direction,Wind SpeedMPH,Gust SpeedMPH,PrecipitationIn,Events,Conditions,WindDirDegrees,DateUTC
12:15 AM,78.8,73.4,83,30.13,7.0,Calm,Calm,-,N/A,,Clear,0,2013-08-10 04:15:00
12:35 AM,77.0,73.4,89,30.13,7.0,South,3.5,-,N/A,,Scattered Clouds,170,2013-08-10 04:35:00
12:55 AM,77.0,73.4,89,30.14,7.0,South,3.5,-,N/A,,Scattered Clouds,190,2013-08-10 04:55:00
1:15 AM,77.0,71.6,83,30.14,3.0,Calm,Calm,-,N/A,,Mostly Cloudy,0,2013-08-10 05:15:00
1:35 AM,75.2,71.6,89,30.14,3.0,Calm,Calm,-,N/A,,Overcast,0,2013-08-10 05:35:00
1:55 AM,75.2,71.6,89,30.14,3.0,Calm,Calm,-,N/A,,Scattered Clouds,0,2013-08-10 05:55:00
2:15 AM,75.2,71.6,89,30.13,7.0,Calm,Calm,-,N/A,,Clear,0,2013-08-10 06:15:00
2:35 AM,73.4,71.6,94,30.13,7.0,Calm,Calm,-,N/A,,Clear,0,2013-08-10 06:35:00
2:55 AM,73.4,71.6,94,30.13,2.0,Calm,Calm,-,N/A,,Clear,0,2013-08-10 06:55:00
3:15 AM,73.4,71.6,94,30.13,7.0,Calm,Calm,-,N/A,,Clear,0,2013-08-10 07:15:00
3:35 AM,73.4,71.6,94,30.13,3.0,Calm,Calm,-,N/A,,Clear,0,2013-08-10 07:35:00
3:55 AM,73.4,71.6,94,30.13,4.0,Calm,Calm,-,N/A,,Clear,0,2013-08-10 07:55:00
4:15 AM,73.4,71.6,94,30.13,4.0,Calm,Calm,-,N/A,,Clear,0,2013-08-10 08:15:00
4:35 AM,71.6,69.8,94,30.13,1.0,Calm,Calm,-,N/A,,Mist,0,2013-08-10 08:35:00
4:55 AM,73.4,69.8,88,30.13,1.2,Calm,Calm,-,N/A,,Mist,0,2013-08-10 08:55:00
5:15 AM,73.4,69.8,88,30.13,4.0,Calm,Calm,-,N/A,,Clear,0,2013-08-10 09:15:00
5:35 AM,71.6,69.8,94,30.13,1.8,Calm,Calm,-,N/A,,Mist,0,2013-08-10 09:35:00
5:55 AM,71.6,69.8,94,30.14,1.2,Calm,Calm,-,N/A,,Mostly Cloudy,0,2013-08-10 09:55:00
6:15 AM,73.4,69.8,88,30.14,3.0,Calm,Calm,-,N/A,,Scattered Clouds,0,2013-08-10 10:15:00
6:35 AM,71.6,69.8,94,30.14,2.5,Calm,Calm,-,N/A,,Clear,0,2013-08-10 10:35:00
6:55 AM,71.6,69.8,94,30.15,2.5,Calm,Calm,-,N/A,,Clear,0,2013-08-10 10:55:00
7:15 AM,71.6,68.0,88,30.15,1.2,Calm,Calm,-,N/A,,Mist,0,2013-08-10 11:15:00
7:35 AM,71.6,69.8,94,30.15,2.0,Calm,Calm,-,N/A,,Clear,0,2013-08-10 11:35:00
7:55 AM,71.6,69.8,94,30.15,4.0,Calm,Calm,-,N/A,,Clear,0,2013-08-10 11:55:00
8:15 AM,71.6,69.8,94,30.16,2.5,Calm,Calm,-,N/A,,Clear,0,2013-08-10 12:15:00
8:35 AM,73.4,69.8,88,30.16,5.0,Calm,Calm,-,N/A,,Mostly Cloudy,0,2013-08-10 12:35:00
8:55 AM,73.4,71.6,94,30.17,5.0,Calm,Calm,-,N/A,,Mostly Cloudy,0,2013-08-10 12:55:00
9:15 AM,75.2,71.6,89,30.17,7.0,Calm,Calm,-,N/A,,Scattered Clouds,0,2013-08-10 13:15:00
9:35 AM,77.0,69.8,78,30.17,10.0,Calm,Calm,-,N/A,,Clear,0,2013-08-10 13:35:00
9:55 AM,78.8,69.8,74,30.17,10.0,Calm,Calm,-,N/A,,Clear,0,2013-08-10 13:55:00
10:15 AM,80.6,69.8,70,30.17,10.0,Calm,Calm,-,N/A,,Clear,0,2013-08-10 14:15:00
10:35 AM,82.4,68.0,62,30.17,10.0,Calm,Calm,-,N/A,,Scattered Clouds,0,2013-08-10 14:35:00
10:55 AM,80.6,68.0,65,30.18,10.0,Calm,Calm,-,N/A,,Mostly Cloudy,0,2013-08-10 14:55:00
11:15 AM,80.6,68.0,65,30.18,10.0,Calm,Calm,-,N/A,,Scattered Clouds,0,2013-08-10 15:15:00
11:35 AM,82.4,68.0,62,30.18,10.0,WSW,3.5,-,N/A,,Scattered Clouds,250,2013-08-10 15:35:00
11:55 AM,86.0,68.0,55,30.18,10.0,WNW,3.5,-,N/A,,Scattered Clouds,300,2013-08-10 15:55:00
12:15 PM,82.4,68.0,62,30.17,10.0,Calm,Calm,-,N/A,,Mostly Cloudy,0,2013-08-10 16:15:00
12:35 PM,84.2,68.0,58,30.17,10.0,Calm,Calm,-,N/A,,Scattered Clouds,0,2013-08-10 16:35:00
12:55 PM,84.2,68.0,58,30.16,10.0,Calm,Calm,-,N/A,,Scattered Clouds,0,2013-08-10 16:55:00
1:15 PM,86.0,66.2,51,30.16,10.0,West,3.5,-,N/A,,Scattered Clouds,270,2013-08-10 17:15:00
1:35 PM,86.0,66.2,51,30.15,10.0,SW,8.1,-,N/A,,Clear,220,2013-08-10 17:35:00
1:55 PM,87.8,64.4,46,30.15,10.0,West,3.5,-,N/A,,Scattered Clouds,260,2013-08-10 17:55:00
2:15 PM,86.0,69.8,58,30.14,10.0,NNW,3.5,-,N/A,,Mostly Cloudy,330,2013-08-10 18:15:00
2:35 PM,87.8,68.0,52,30.14,10.0,NW,3.5,-,N/A,,Scattered Clouds,310,2013-08-10 18:35:00
2:55 PM,87.8,64.4,46,30.14,10.0,West,3.5,-,N/A,,Clear,280,2013-08-10 18:55:00
3:15 PM,87.8,64.4,46,30.13,10.0,Calm,Calm,-,N/A,,Scattered Clouds,0,2013-08-10 19:15:00
3:35 PM,87.8,64.4,46,30.12,10.0,West,4.6,-,N/A,,Clear,280,2013-08-10 19:35:00
3:55 PM,87.8,68.0,52,30.11,10.0,Calm,Calm,-,N/A,,Scattered Clouds,0,2013-08-10 19:55:00
4:15 PM,87.8,66.2,49,30.11,10.0,Calm,Calm,-,N/A,,Scattered Clouds,0,2013-08-10 20:15:00
4:35 PM,86.0,64.4,48,30.11,10.0,West,3.5,-,N/A,,Scattered Clouds,260,2013-08-10 20:35:00
4:55 PM,78.8,64.4,61,30.12,10.0,SSW,12.7,17.3,N/A,,Mostly Cloudy,200,2013-08-10 20:55:00
5:15 PM,77.0,68.0,74,30.14,10.0,South,6.9,16.1,N/A,,Overcast,190,2013-08-10 21:15:00
5:35 PM,73.4,69.8,88,30.14,0.5,WSW,4.6,-,N/A,Rain,Heavy Rain,240,2013-08-10 21:35:00
5:55 PM,71.6,68.0,88,30.14,2.0,SSW,5.8,-,N/A,Rain,Heavy Rain,210,2013-08-10 21:55:00
6:15 PM,71.6,68.0,88,30.14,10.0,SW,5.8,-,N/A,Rain,Light Rain,220,2013-08-10 22:15:00
6:35 PM,71.6,68.0,88,30.15,1.8,Calm,Calm,-,N/A,Rain,Rain,0,2013-08-10 22:35:00
6:55 PM,73.4,69.8,88,30.14,5.0,Calm,Calm,-,N/A,Rain,Light Rain,0,2013-08-10 22:55:00
7:15 PM,73.4,69.8,88,30.14,2.5,Calm,Calm,-,N/A,Rain,Light Rain,0,2013-08-10 23:15:00
7:35 PM,73.4,69.8,88,30.16,7.0,SSW,3.5,-,N/A,Rain,Light Rain,200,2013-08-10 23:35:00
7:55 PM,73.4,69.8,88,30.15,7.0,Calm,Calm,-,N/A,Rain,Light Rain,0,2013-08-10 23:55:00
8:15 PM,73.4,69.8,88,30.16,1.0,Calm,Calm,-,N/A,,Mostly Cloudy,0,2013-08-11 00:15:00
8:35 PM,73.4,69.8,88,30.16,2.0,SW,3.5,-,N/A,,Scattered Clouds,230,2013-08-11 00:35:00
8:55 PM,73.4,69.8,88,30.16,3.0,SSE,3.5,-,N/A,,Mostly Cloudy,160,2013-08-11 00:55:00
9:15 PM,73.4,71.6,94,30.16,3.0,Calm,Calm,-,N/A,,Overcast,0,2013-08-11 01:15:00
9:35 PM,73.4,69.8,88,30.17,3.0,ESE,3.5,-,N/A,,Overcast,110,2013-08-11 01:35:00
9:55 PM,73.4,69.8,88,30.17,2.5,Calm,Calm,-,N/A,,Overcast,0,2013-08-11 01:55:00
10:15 PM,73.4,69.8,88,30.16,0.8,Calm,Calm,-,N/A,,Overcast,0,2013-08-11 02:15:00
10:35 PM,71.6,69.8,94,30.17,0.8,Calm,Calm,-,N/A,,Mostly Cloudy,0,2013-08-11 02:35:00
10:55 PM,71.6,69.8,94,30.17,1.8,Calm,Calm,-,N/A,,Mist,0,2013-08-11 02:55:00
11:15 PM,71.6,69.8,94,30.17,0.8,Calm,Calm,-,N/A,,Mist,0,2013-08-11 03:15:00
11:35 PM,71.6,69.8,94,30.16,1.5,Calm,Calm,-,N/A,,Mist,0,2013-08-11 03:35:00
11:55 PM,71.6,69.8,94,30.16,1.5,Calm,Calm,-,N/A,,Mist,0,2013-08-11 03:55:00